Theta_e
297 296 295 295 294 294 293 292 292 291 291 290 290 290 290 290 291 291 291 290 289 289 289 289 288 288 288 287 286 286 285 284 284 283 282 282 281 281 280 279 279 278
297 296 296 296 295 294 294 294 293 292 291 291 291 291 291 290 290 290 290 289 289 288 289 289 288 287 287 286 286 285 285 284 283 284 282 282 281 281 280 279 279 279
297 296 296 295 294 294 294 294 294 293 292 292 292 291 290 290 290 290 289 289 288 288 288 288 287 287 286 286 286 285 284 284 283 283 283 281 280 280 280 281 281 281
297 296 296 296 295 294 294 294 294 293 293 292 291 291 290 290 290 289 288 288 288 287 287 287 287 287 286 286 285 284 284 284 283 283 283 282 282 282 281 281 281 280
297 297 297 297 296 295 295 294 293 293 293 292 292 291 290 289 289 289 288 288 287 287 287 287 287 286 286 285 284 284 284 283 283 283 282 282 282 282 281 281 280 279
297 297 297 297 296 295 294 294 293 293 293 292 291 290 290 290 289 288 288 287 287 287 287 287 286 286 285 284 283 282 282 282 281 281 281 281 280 280 281 280 280 279
297 297 297 297 296 295 294 294 294 293 293 292 291 290 290 289 288 288 287 287 287 287 286 286 286 284 284 282 281 281 281 281 281 281 281 280 280 280 281 281 281 279
297 297 297 296 295 295 294 294 293 293 293 292 291 290 290 289 288 287 287 287 287 286 286 286 285 284 283 283 282 282 281 283 282 282 281 281 281 280 281 281 281 280
297 297 297 296 295 295 294 294 294 293 293 292 291 290 290 289 288 287 287 287 286 286 286 285 285 285 284 283 283 283 282 283 284 282 282 281 281 281 281 281 281 281
297 297 297 296 295 294 294 294 294 293 293 292 292 291 289 289 288 287 286 286 285 285 285 285 285 285 285 284 285 284 284 283 283 283 283 282 282 283 282 282 281 280
297 297 296 296 295 294 294 294 294 293 293 293 292 291 290 289 288 287 286 285 285 285 285 285 285 285 285 285 285 285 284 284 283 283 283 283 283 283 284 282 282 281
297 297 296 296 295 295 295 295 294 294 293 292 292 291 290 289 288 287 286 285 285 285 285 285 285 285 284 284 284 284 284 284 284 284 284 283 283 283 283 283 282 282
297 297 296 296 296 296 295 295 294 294 293 292 292 292 290 288 288 287 286 286 286 285 285 285 285 285 284 284 284 283 284 284 284 284 284 284 284 283 283 283 283 283
297 297 297 297 296 296 296 295 295 294 293 293 292 292 290 289 288 287 287 286 286 286 286 285 285 285 284 284 284 283 283 283 284 284 284 284 284 284 284 284 284 284
298 297 297 297 296 296 296 295 295 294 294 293 292 292 291 290 289 288 287 286 286 286 285 285 285 285 285 284 284 283 283 283 284 284 284 283 284 284 284 284 284 284
297 297 297 297 296 296 296 295 295 294 293 292 292 291 291 289 289 288 287 287 286 285 285 285 285 285 285 286 287 284 284 284 284 284 284 284 283 283 284 284 284 284
297 297 297 297 297 296 296 295 295 294 293 292 291 290 290 289 289 288 287 287 287 286 285 285 285 285 286 288 288 288 285 284 284 284 284 284 284 284 284 284 284 285
296 297 296 296 296 296 296 295 294 293 293 292 291 290 290 289 288 288 288 287 287 287 286 286 285 286 288 289 289 289 287 285 284 284 284 284 284 284 284 284 284 284
295 295 295 295 296 295 295 294 294 293 292 291 290 290 289 289 289 288 288 288 288 287 287 287 286 287 289 289 290 290 290 287 284 284 284 285 284 284 284 284 284 284
295 295 295 295 295 295 294 294 293 293 293 292 290 289 289 289 289 288 288 288 288 288 288 287 287 287 289 289 289 289 290 289 285 285 285 285 284 284 285 285 285 285
296 295 295 295 295 295 294 294 294 293 293 292 291 290 290 290 289 288 288 288 288 288 288 288 288 289 290 290 290 290 290 290 287 286 285 284 285 285 286 286 286 286
295 295 295 295 295 294 294 294 294 294 294 292 290 290 290 290 290 290 289 289 289 289 288 288 289 290 290 290 290 290 290 288 287 286 286 286 286 286 286 286 286 286
296 295 295 295 294 294 294 294 294 294 293 291 291 291 290 290 290 290 290 290 289 289 288 289 289 289 290 290 290 291 290 287 287 287 287 287 287 287 287 287 287 286
296 296 295 295 295 294 295 295 294 294 293 291 292 291 290 291 291 290 290 290 290 290 289 289 290 289 289 290 290 291 289 288 287 287 287 287 287 288 288 288 288 286
296 296 296 295 295 295 295 295 294 294 293 292 292 292 291 291 290 290 290 290 290 290 288 289 290 289 289 290 290 290 289 288 288 287 287 287 287 288 288 288 288 287
295 295 295 295 295 295 295 295 294 291 291 291 291 292 291 291 290 290 290 290 290 289 290 290 290 290 289 290 290 290 290 289 288 287 287 287 287 287 287 288 288 288
Wind_Speed
8 8 8 8 7 7 9 10 9 9 8 7 8 7 8 6 6 5 5 5 4 4 5 5 4 3 3 3 3 3 3 3 3 3 3 4 4 5 5 4 3 3
9 9 7 7 6 6 7 7 8 9 8 8 7 6 6 7 6 7 7 6 5 5 5 5 4 4 4 4 3 4 3 3 4 2 4 4 4 4 4 4 3 3
9 10 10 10 9 10 9 7 7 6 7 7 6 6 6 6 7 7 6 6 5 5 5 4 4 4 4 4 4 3 4 4 4 3 3 4 3 3 3 4 4 5
9 10 9 9 8 9 8 8 7 6 6 6 7 7 7 7 7 7 6 6 5 5 4 4 5 4 4 4 4 3 3 3 4 4 4 3 3 4 4 3 3 2
9 9 8 8 7 7 7 8 8 8 8 7 6 7 7 7 7 7 7 6 5 5 4 5 4 4 4 4 4 4 3 4 4 4 4 4 4 4 4 5 5 4
8 7 8 8 8 9 9 8 8 8 8 8 8 7 7 7 7 8 7 6 5 5 5 5 5 4 5 4 4 3 4 4 3 4 4 4 3 2 3 4 5 5
9 9 9 8 8 8 8 7 7 7 7 7 7 7 7 8 8 8 8 7 7 6 6 6 6 5 4 4 4 3 3 3 4 4 4 3 3 3 3 5 6 5
9 8 8 8 9 8 8 7 7 7 7 7 8 7 8 8 8 7 7 7 8 7 6 5 5 5 5 5 5 4 3 3 4 5 4 4 4 5 5 4 3 4
8 8 8 9 9 8 8 8 7 7 7 8 8 7 6 7 7 7 7 7 6 6 6 6 6 6 5 5 5 6 6 5 5 6 6 6 6 6 5 4 4 4
9 8 9 9 9 8 9 8 7 7 7 7 7 7 8 7 6 6 7 7 7 6 6 6 6 6 6 6 6 7 7 7 6 6 6 6 7 6 7 7 7 5
9 9 9 9 8 7 9 8 8 7 7 8 7 7 7 7 6 6 6 6 7 8 8 8 7 7 7 6 6 6 6 5 6 6 7 7 6 5 6 6 6 7
9 9 9 9 9 8 9 8 8 8 8 7 7 8 7 7 7 6 7 9 8 8 8 7 6 7 7 7 7 7 6 6 5 6 6 6 5 6 6 6 7 7
9 9 9 8 8 8 7 7 7 7 8 8 8 8 8 8 7 8 7 8 8 7 8 8 7 7 7 7 7 7 7 7 6 6 6 6 5 6 6 7 7 6
8 8 8 8 8 7 7 7 7 7 7 7 7 7 8 8 8 9 8 7 7 7 8 7 6 6 6 7 7 7 7 7 7 7 7 6 6 6 6 6 7 7
7 7 6 6 7 7 7 7 7 7 7 6 7 7 6 7 7 7 7 7 5 6 6 6 6 7 7 8 8 8 7 8 8 7 7 7 6 6 6 7 7 7
6 6 6 6 7 7 7 7 7 7 6 6 7 7 6 6 6 7 7 8 7 7 6 6 7 6 9 13 9 7 7 6 6 7 7 7 7 7 7 7 7 7
6 6 6 7 7 7 6 6 6 6 6 6 6 6 6 7 7 8 7 7 8 7 8 7 7 7 11 12 13 12 8 7 8 8 7 8 8 8 8 8 8 8
6 6 6 6 6 6 6 6 5 6 6 6 6 6 6 6 7 7 7 7 7 7 7 7 7 9 12 12 12 14 11 8 7 7 7 8 8 8 8 7 8 7
5 5 6 6 6 6 6 6 6 6 6 6 6 5 5 6 6 6 7 7 7 7 7 7 6 10 11 10 11 13 13 11 6 7 8 8 8 8 8 8 6 6
6 6 6 6 6 6 6 6 6 7 6 5 5 5 6 6 6 7 6 7 8 8 8 7 8 10 13 13 14 13 13 12 8 9 8 8 7 7 8 8 8 7
6 6 6 6 6 7 6 7 7 6 6 7 6 7 8 8 8 8 8 8 8 8 8 8 8 12 13 14 15 15 14 13 9 8 8 8 9 9 9 8 7 9
7 7 7 6 7 7 7 7 7 8 8 6 6 6 6 5 5 6 7 7 7 8 8 9 8 13 14 15 15 15 17 11 9 9 10 9 9 9 9 8 8 9
8 8 7 7 7 8 8 8 8 8 7 6 7 7 7 8 8 8 7 8 9 9 9 9 9 11 14 15 15 16 13 8 9 9 9 10 10 9 8 8 9 9
8 8 8 8 8 9 9 8 7 6 7 7 8 8 8 9 8 8 7 8 9 10 10 10 10 11 14 15 16 17 14 10 9 9 10 10 10 9 9 9 10 14
7 7 7 7 8 8 7 7 8 8 7 7 8 7 7 7 6 8 7 7 8 9 11 12 9 9 14 15 17 17 15 9 8 8 10 11 10 10 8 9 10 11
7 8 7 8 9 8 7 8 6 4 6 7 7 7 7 6 7 8 9 8 8 9 9 10 9 8 9 15 17 18 18 11 8 9 11 12 9 9 9 10 10 10
Wind_Direction
151 153 158 161 157 159 160 161 164 166 170 168 174 175 178 166 160 165 165 164 169 174 179 177 164 159 152 149 147 136 148 135 120 130 128 128 132 145 144 148 147 143
155 154 153 151 147 154 162 160 163 168 169 170 169 160 157 159 166 169 173 178 181 190 178 169 168 170 163 157 159 155 137 134 127 124 132 132 142 138 139 143 135 127
156 159 163 165 163 161 162 159 162 165 165 160 151 156 155 159 161 170 179 187 187 181 171 168 169 172 162 157 161 156 152 144 135 133 126 135 140 133 139 139 142 164
162 164 162 158 155 160 157 153 159 156 150 152 165 158 156 161 161 168 178 183 181 178 172 169 175 165 161 155 151 154 155 139 132 135 122 114 134 134 141 135 136 142
161 159 159 155 150 148 152 160 166 166 162 157 144 150 155 161 162 169 174 179 176 177 173 174 164 161 152 154 172 165 155 139 138 143 140 146 161 154 159 152 159 152
157 158 157 157 155 156 165 171 172 166 159 156 163 157 165 164 163 167 174 177 176 173 180 173 171 167 162 165 171 162 149 146 150 149 157 167 168 156 155 167 161 167
161 159 159 153 151 162 162 166 168 168 165 156 146 168 164 165 169 175 178 178 172 189 184 180 173 167 164 162 169 163 157 150 146 169 171 166 149 164 178 178 181 179
159 158 157 155 158 160 166 166 168 172 161 153 165 168 170 171 173 174 176 176 175 183 186 182 177 171 175 172 177 174 173 166 172 179 183 175 168 188 189 190 175 171
157 161 160 162 161 165 168 170 170 168 164 164 166 166 173 174 174 171 173 173 175 179 184 186 185 183 179 183 186 185 186 191 189 187 190 186 193 196 179 174 182 195
163 162 164 166 169 169 172 172 169 170 165 166 165 162 171 177 177 173 168 176 179 182 188 191 187 184 181 192 196 194 197 199 193 195 197 201 202 191 182 181 192 191
164 165 170 173 172 169 174 172 172 165 167 169 163 168 174 168 174 166 169 174 186 188 188 193 194 184 185 193 201 205 210 206 197 197 206 211 207 194 185 188 195 207
167 169 176 175 172 172 175 177 172 167 168 171 170 171 170 174 171 172 176 187 192 189 189 194 188 188 192 195 200 204 209 211 209 208 213 215 208 201 196 194 200 207
172 176 175 174 176 177 175 175 173 170 169 175 176 174 172 174 178 176 186 188 192 184 190 190 190 190 194 197 202 206 210 210 212 214 219 218 216 209 208 206 208 206
174 176 175 178 179 174 176 177 174 173 177 176 170 177 180 181 178 184 187 189 191 191 194 186 185 190 194 202 207 206 203 209 209 215 220 223 220 218 214 217 216 214
172 176 175 174 174 175 177 180 178 179 180 174 175 184 183 182 181 180 179 190 192 190 187 183 188 199 198 203 206 207 203 206 208 215 219 225 225 224 222 223 225 221
169 169 177 176 177 182 183 182 181 181 177 177 182 184 180 174 175 184 187 191 188 191 189 188 201 204 211 211 203 198 199 203 208 217 220 223 227 230 229 224 228 226
174 179 177 183 183 183 183 180 180 178 182 187 184 179 179 177 181 186 193 192 192 191 195 199 203 210 215 215 210 200 193 201 208 217 218 223 224 227 232 231 230 228
179 175 176 182 178 186 181 179 173 178 185 185 182 181 186 176 185 193 192 191 194 201 206 205 209 213 218 216 209 203 199 205 209 216 220 224 224 226 231 234 236 234
170 169 177 179 183 180 180 175 174 180 185 184 196 193 179 188 196 187 197 194 197 205 214 211 215 212 218 213 210 209 203 206 221 222 227 230 224 225 230 232 234 239
169 175 180 185 180 177 176 179 181 191 188 189 186 179 190 197 195 198 198 199 201 206 211 211 217 216 216 216 222 219 215 212 226 227 234 238 232 229 231 228 224 230
174 179 184 183 182 181 183 189 191 186 186 190 188 193 196 201 199 202 206 204 205 206 211 216 219 214 214 214 215 215 213 215 224 228 234 237 235 232 232 229 227 228
181 183 187 183 182 184 188 195 194 192 194 189 190 200 205 201 210 203 207 208 207 206 213 225 226 215 213 213 213 212 211 214 219 226 232 236 238 235 233 231 230 232
186 186 187 187 183 187 196 198 196 197 198 179 191 200 200 205 208 205 204 204 206 209 213 225 229 220 215 214 213 213 212 215 218 228 236 240 243 237 234 233 229 225
188 188 189 189 188 199 202 203 201 198 195 183 193 195 206 210 205 211 210 208 209 213 211 219 228 219 210 211 211 211 207 210 212 220 234 239 248 239 235 236 231 226
188 189 190 188 197 207 203 200 199 200 194 184 201 199 210 200 201 212 216 216 216 220 214 218 228 220 206 208 210 211 210 211 209 217 232 238 238 244 234 237 239 229
186 188 191 191 202 207 202 207 197 180 182 191 201 201 206 202 203 209 217 221 214 219 223 222 226 229 210 209 210 212 209 207 207 214 230 238 235 240 244 238 236 237